NG7M Weather Reports


time (UTC)temp
F
wind
direction
speed
knots
gust
knots
rain 1hr
in
rain 24hr
in
rain mn
in
humidity
%
barometer
mb
20260505093503 58 157 0.0 0.0 0.00 0.00 0.00 53 1007.6
20260505093004 58 146 0.0 0.0 0.00 0.00 0.00 53 1007.6
20260505092004 58 147 0.0 0.0 0.00 0.00 0.00 52 1007.7
20260505091504 58 156 0.0 0.0 0.00 0.00 0.00 52 1007.7
20260505091004 58 155 0.0 0.0 0.00 0.00 0.00 52 1007.6
20260505090503 58 145 0.0 0.0 0.00 0.00 0.00 52 1007.6
20260505090004 57 149 0.0 0.0 0.00 0.00 0.00 53 1007.6
20260505085503 57 157 0.0 0.0 0.00 0.00 0.00 53 1007.7
20260505085004 57 146 0.0 0.0 0.00 0.00 0.00 52 1007.7
20260505084504 57 145 0.0 0.0 0.00 0.00 0.00 52 1007.7
20260505084003 58 145 0.0 0.0 0.00 0.00 0.00 52 1007.7
20260505083504 58 140 0.0 0.0 0.00 0.00 0.00 51 1007.9
20260505083003 58 140 0.0 0.0 0.00 0.00 0.00 51 1007.9
20260505082503 58 158 0.0 0.0 0.00 0.00 0.00 50 1007.9
20260505082003 58 135 0.0 0.0 0.00 0.00 0.00 50 1007.9
20260505081503 58 141 0.0 0.0 0.00 0.00 0.00 50 1007.9
20260505081004 58 122 0.0 0.0 0.00 0.00 0.00 50 1008.1
20260505080504 58 143 0.0 0.0 0.00 0.00 0.00 51 1008.1
20260505080003 58 123 0.0 0.0 0.00 0.00 0.00 52 1008.1
20260505075504 58 130 0.0 0.0 0.00 0.00 0.00 53 1008.1
20260505075003 58 142 0.0 0.0 0.00 0.00 0.00 53 1008.1
20260505074504 58 132 0.0 0.0 0.00 0.00 0.00 53 1008.1
20260505074004 58 127 0.0 0.0 0.00 0.00 0.00 53 1008.3
20260505073503 58 134 0.0 0.0 0.00 0.00 0.00 52 1008.3
20260505073004 58 156 0.0 0.0 0.00 0.00 0.00 52 1008.3
20260505072503 58 142 0.0 0.0 0.00 0.00 0.00 52 1008.3
20260505072003 58 141 0.0 0.0 0.00 0.00 0.00 53 1008.3
20260505071004 58 131 0.0 0.0 0.00 0.00 0.00 54 1008.5
20260505070504 58 152 0.0 0.0 0.00 0.00 0.00 53 1008.4
20260505070004 58 135 0.0 0.0 0.00 0.00 0.00 53 1008.4
20260505065503 59 132 0.0 0.0 0.00 0.00 0.00 52 1008.4
20260505065003 59 141 0.0 0.0 0.00 0.00 0.00 52 1008.4
20260505064503 59 141 0.0 0.0 0.00 0.00 0.00 52 1008.4
20260505064003 59 141 0.0 0.0 0.00 0.00 0.00 52 1008.4
20260505063504 58 149 0.0 0.0 0.00 0.00 0.00 53 1008.4
20260505063004 58 156 0.0 0.0 0.00 0.00 0.00 54 1008.4
20260505062505 58 172 0.0 0.0 0.00 0.00 0.00 54 1008.1
20260505062004 59 212 0.0 0.0 0.00 0.00 0.00 54 1008.1
20260505061505 59 167 0.0 0.0 0.00 0.00 0.00 53 1008.1
20260505061004 59 153 0.0 0.0 0.00 0.00 0.00 52 1008.1
20260505060504 59 148 0.0 0.0 0.00 0.00 0.00 52 1008.1
20260505060004 59 150 0.0 0.0 0.00 0.00 0.00 52 1007.6
20260505055503 59 143 0.0 0.0 0.00 0.00 0.00 51 1007.6
20260505055004 60 152 0.0 0.0 0.00 0.00 0.00 50 1007.6
20260505053004 60 158 0.0 0.0 0.00 0.00 0.00 45 1007.3
20260505052503 60 138 0.0 0.0 0.00 0.00 0.00 45 1007.2
20260505051504 61 137 0.0 0.0 0.00 0.00 0.00 45 1007.2
20260505051003 61 138 0.0 0.0 0.00 0.00 0.00 44 1007.1
20260505050503 61 139 0.0 0.0 0.00 0.00 0.00 44 1007.1
20260505041504 63 150 0.0 0.0 0.00 0.00 0.00 37 1006.4
20260505041003 63 144 0.0 0.0 0.00 0.00 0.00 37 1006.3
20260505040504 63 142 0.0 0.0 0.00 0.00 0.00 37 1006.3
20260505040004 63 138 0.0 0.0 0.00 0.00 0.00 37 1006.3
20260505035504 63 135 0.0 0.0 0.00 0.00 0.00 37 1006.2
20260505035003 64 143 0.0 0.0 0.00 0.00 0.00 37 1005.9
20260505034503 64 142 0.0 0.0 0.00 0.00 0.00 37 1005.9
20260505034004 64 150 0.0 0.0 0.00 0.00 0.00 37 1005.8
20260505033503 64 165 0.0 0.0 0.00 0.00 0.00 36 1005.8
20260505033004 65 164 0.0 0.0 0.00 0.00 0.00 36 1005.8
20260505032504 65 159 0.0 0.0 0.00 0.00 0.00 33 1005.8
20260505032004 66 172 0.0 0.0 0.00 0.00 0.00 32 1005.4
20260505031504 66 167 0.0 0.0 0.00 0.00 0.00 30 1005.4
20260505031003 66 168 0.0 0.0 0.00 0.00 0.00 29 1005.4
20260505030504 66 169 0.0 0.0 0.00 0.00 0.00 30 1005.3
20260505030003 66 167 0.0 0.0 0.00 0.00 0.00 30 1005.2
20260505025504 66 167 0.0 0.0 0.00 0.00 0.00 29 1005.2
20260505024003 67 169 0.0 0.0 0.00 0.00 0.00 29 1005.1
20260505023504 67 165 0.0 0.0 0.00 0.00 0.00 28 1005.1
20260505023004 67 178 0.0 0.0 0.00 0.00 0.00 28 1005.1
20260505022504 68 176 0.0 0.0 0.00 0.00 0.00 28 1005.1
20260505022003 68 171 0.0 0.0 0.00 0.00 0.00 28 1004.9
20260505020504 69 169 0.0 0.0 0.00 0.00 0.00 29 1004.8
20260505020003 69 177 0.0 0.0 0.00 0.00 0.00 28 1004.7
20260505015004 70 169 0.0 0.0 0.00 0.00 0.00 26 1004.5
20260505014504 71 178 0.0 0.0 0.00 0.00 0.00 26 1004.5
20260505014003 71 188 0.0 0.0 0.00 0.00 0.00 25 1004.5
20260505013503 71 168 0.0 0.0 0.00 0.00 0.00 24 1004.5
20260505013004 71 165 0.0 0.0 0.00 0.00 0.00 24 1004.7
20260505012503 72 170 0.0 0.0 0.00 0.00 0.00 23 1004.7
20260505012004 72 158 0.0 0.0 0.00 0.00 0.00 23 1004.8
20260505011503 72 155 0.0 0.0 0.00 0.00 0.00 23 1005.0
20260505011004 72 174 0.0 0.0 0.00 0.00 0.00 23 1005.0
20260505010503 72 168 0.0 0.0 0.00 0.00 0.00 23 1005.1
20260505010004 72 160 0.0 0.0 0.00 0.00 0.00 23 1005.2
20260505005503 72 167 0.0 0.0 0.00 0.00 0.00 24 1005.2
20260505005004 72 168 0.0 0.0 0.00 0.00 0.00 23 1005.2
20260505004503 72 142 0.0 0.0 0.00 0.00 0.00 24 1005.2
20260505003503 72 164 0.0 0.0 0.00 0.00 0.00 24 1005.2
20260505003003 72 168 0.0 0.0 0.00 0.00 0.00 24 1005.3
20260505002503 72 173 0.0 0.0 0.00 0.00 0.00 24 1005.3
20260505001503 72 157 0.0 0.0 0.00 0.00 0.00 24 1005.3
20260505001003 72 171 0.0 0.0 0.00 0.00 0.00 24 1005.4
20260505000504 72 171 0.0 0.0 0.00 0.00 0.00 24 1005.5
20260505000004 73 192 0.0 0.0 0.00 0.00 0.00 23 1005.5
20260504235503 73 199 0.0 0.0 0.00 0.00 0.00 21 1005.5
20260504235004 73 182 0.0 0.0 0.00 0.00 0.00 22 1005.5
20260504234503 73 213 0.0 0.0 0.00 0.00 0.00 22 1005.5
20260504234004 73 207 0.0 0.0 0.00 0.00 0.00 21 1005.5
20260504233504 74 209 0.0 0.0 0.00 0.00 0.00 22 1005.5
20260504233004 74 202 0.0 0.0 0.00 0.00 0.00 21 1005.6
20260504232004 73 204 0.0 0.0 0.00 0.00 0.00 21 1005.6
20260504231004 74 220 0.0 0.0 0.00 0.00 0.00 20 1005.6
20260504230504 74 226 0.0 0.0 0.00 0.00 0.00 20 1005.6
20260504225504 74 198 0.0 0.0 0.00 0.00 0.00 20 1005.6
20260504224504 73 229 0.0 0.0 0.00 0.00 0.00 22 1005.6
20260504224004 73 230 0.0 0.0 0.00 0.00 0.00 22 1005.6
20260504223503 73 222 0.0 0.0 0.00 0.00 0.00 24 1005.6
20260504223004 73 206 0.0 0.0 0.00 0.00 0.00 24 1005.7
20260504222504 74 228 0.0 0.0 0.00 0.00 0.00 23 1005.7
20260504222004 73 220 0.0 0.0 0.00 0.00 0.00 23 1005.7
20260504221503 73 207 0.0 0.0 0.00 0.00 0.00 25 1005.7
20260504220004 75 200 0.0 0.0 0.00 0.00 0.00 17 1005.8
20260504215504 75 242 0.0 0.0 0.00 0.00 0.00 17 1006.0
20260504215004 76 238 0.0 0.0 0.00 0.00 0.00 17 1006.0
20260504214503 76 266 0.0 0.0 0.00 0.00 0.00 18 1006.0
20260504214004 76 262 0.0 0.0 0.00 0.00 0.00 17 1006.0
20260504213004 76 258 0.0 0.0 0.00 0.00 0.00 18 1006.1
20260504212503 76 286 0.0 0.0 0.00 0.00 0.00 17 1006.4
20260504212004 76 263 0.0 0.0 0.00 0.00 0.00 18 1006.4
20260504211503 76 265 0.0 0.0 0.00 0.00 0.00 18 1006.4
20260504211004 77 268 0.0 0.0 0.00 0.00 0.00 18 1006.4
20260504210504 76 278 0.0 0.0 0.00 0.00 0.00 17 1006.4
20260504210004 77 250 0.0 0.0 0.00 0.00 0.00 17 1006.4
20260504205503 76 277 0.0 0.0 0.00 0.00 0.00 19 1006.5
20260504205004 77 259 0.0 0.0 0.00 0.00 0.00 17 1006.5
20260504204503 77 218 0.0 0.0 0.00 0.00 0.00 17 1006.8
20260504203504 75 256 0.0 0.0 0.00 0.00 0.00 19 1006.8
20260504203004 75 310 0.0 0.0 0.00 0.00 0.00 17 1006.9
20260504202504 76 284 0.0 0.0 0.00 0.00 0.00 18 1006.9
20260504202004 76 358 0.0 0.0 0.00 0.00 0.00 17 1006.9
20260504201504 76 338 0.0 0.0 0.00 0.00 0.00 18 1007.0
20260504201004 76 283 0.0 0.0 0.00 0.00 0.00 18 1007.0
20260504200503 75 303 0.0 0.0 0.00 0.00 0.00 19 1007.0
20260504200004 75 332 0.0 0.0 0.00 0.00 0.00 18 1007.0
20260504195503 75 352 0.0 0.0 0.00 0.00 0.00 18 1007.0
20260504195004 75 264 0.0 0.0 0.00 0.00 0.00 19 1007.0
20260504194503 75 300 0.0 0.0 0.00 0.00 0.00 20 1007.2
20260504194004 75 260 0.0 0.0 0.00 0.00 0.00 20 1007.2
20260504193004 75 255 0.0 0.0 0.00 0.00 0.00 21 1007.7
20260504192503 75 330 0.0 0.0 0.00 0.00 0.00 21 1007.7
20260504192004 74 303 0.0 0.0 0.00 0.00 0.00 22 1007.3
20260504191503 74 231 0.0 0.0 0.00 0.00 0.00 21 1007.3
20260504191004 74 300 0.0 0.0 0.00 0.00 0.00 22 1007.7
20260504190504 75 304 0.0 0.0 0.00 0.00 0.00 22 1007.7
20260504190003 76 235 0.0 0.0 0.00 0.00 0.00 21 1007.7
20260504185504 75 323 0.0 0.0 0.00 0.00 0.00 21 1007.7
20260504185003 74 285 0.0 0.0 0.00 0.00 0.00 23 1007.8
20260504184004 74 258 0.0 0.0 0.00 0.00 0.00 20 1007.8
20260504183003 73 263 0.0 0.0 0.00 0.00 0.00 20 1008.1
20260504182003 74 235 0.0 0.0 0.00 0.00 0.00 21 1008.2
20260504181504 74 226 0.0 0.0 0.00 0.00 0.00 20 1008.3
20260504181004 74 203 0.0 0.0 0.00 0.00 0.00 23 1008.3
20260504180503 73 262 0.0 0.0 0.00 0.00 0.00 21 1008.2
20260504180004 73 250 0.0 0.0 0.00 0.00 0.00 22 1008.2
20260504175503 73 155 0.0 0.0 0.00 0.00 0.00 22 1008.8
20260504175004 73 175 0.0 0.0 0.00 0.00 0.00 25 1008.8
20260504174503 73 235 0.0 0.0 0.00 0.00 0.00 23 1008.8
20260504173504 73 133 0.0 0.0 0.00 0.00 0.00 23 1008.8
20260504172504 71 143 0.0 0.0 0.00 0.00 0.00 24 1008.7
20260504172004 71 218 0.0 0.0 0.00 0.00 0.00 24 1008.7
20260504171503 71 168 0.0 0.0 0.00 0.00 0.00 25 1008.7
20260504170504 71 152 0.0 0.0 0.00 0.00 0.00 24 1008.8
20260504151004 66 160 0.0 0.0 0.00 0.00 0.00 33 1009.1
20260504150503 65 157 0.0 0.0 0.00 0.00 0.00 33 1009.1
20260504141004 62 174 0.0 0.0 0.00 0.00 0.00 36 1009.3
20260504140504 62 161 0.0 0.0 0.00 0.00 0.00 37 1009.3
20260504130504 58 138 0.0 0.0 0.00 0.00 0.00 36 1009.3
20260504100503 56 128 0.0 0.0 0.00 0.00 0.00 43 1008.8